| time (UTC) | temp F | wind direction | speed knots | gust knots | rain 1hr in | rain 24hr in | rain mn in | humidity % | barometer mb |
| 20260507021500 | 43 | 55 | 3.5 | 3.5 | 0.00 | 0.00 | 0.00 | 99 | |
| 20260507020500 | 43 | 8 | 1.7 | 4.3 | 0.00 | 0.00 | 0.00 | 99 | |
| 20260507015440 | 43 | 27 | 3.5 | 3.5 | 0.00 | 0.00 | 0.00 | 99 | |
| 20260507014440 | 43 | 65 | 1.7 | 1.7 | 0.00 | 0.00 | 0.00 | 99 | |
| 20260507013420 | 43 | 53 | 4.3 | 6.1 | 0.00 | 0.00 | 0.00 | 99 | |
| 20260507012420 | 43 | 35 | 1.7 | 2.6 | 0.00 | 0.01 | 0.00 | 99 | |
| 20260507011400 | 43 | 33 | 1.7 | 7.0 | 0.00 | 0.02 | 0.00 | 99 | |
| 20260507010400 | 43 | 296 | 1.7 | 3.5 | 0.00 | 0.03 | 0.00 | 99 | |
| 20260507005400 | 44 | 26 | 3.5 | 3.5 | 0.00 | 0.03 | 0.00 | 99 | |
| 20260507004340 | 44 | 46 | 3.5 | 4.3 | 0.00 | 0.03 | 0.00 | 99 | |
| 20260507003340 | 43 | 61 | 1.7 | 2.6 | 0.00 | 0.03 | 0.00 | 99 | |
| 20260507002320 | 44 | 21 | 5.2 | 5.2 | 0.00 | 0.03 | 0.00 | 99 | |
| 20260507001320 | 44 | 49 | 3.5 | 4.3 | 0.00 | 0.03 | 0.00 | 99 | |
| 20260507000321 | 44 | 47 | 4.3 | 6.1 | 0.00 | 0.03 | 0.00 | 99 | |
| 20260506235300 | 44 | 56 | 4.3 | 7.8 | 0.00 | 0.03 | 0.00 | 99 | |
| 20260506234300 | 44 | 53 | 2.6 | 4.3 | 0.00 | 0.03 | 0.00 | 99 | |
| 20260506233240 | 44 | 46 | 2.6 | 3.5 | 0.00 | 0.03 | 0.00 | 99 | |
| 20260506232240 | 44 | 351 | 3.5 | 4.3 | 0.00 | 0.03 | 0.00 | 99 | |
| 20260506231240 | 44 | 23 | 1.7 | 2.6 | 0.00 | 0.03 | 0.00 | 99 | |
| 20260506230222 | 44 | 46 | 1.7 | 1.7 | 0.00 | 0.03 | 0.00 | 99 | |
| 20260506225221 | 44 | 306 | 5.2 | 6.1 | 0.00 | 0.03 | 0.00 | 99 | |
| 20260506224200 | 44 | 350 | 2.6 | 3.5 | 0.00 | 0.03 | 0.00 | 99 | |
| 20260506223200 | 44 | 53 | 4.3 | 4.3 | 0.00 | 0.03 | 0.00 | 99 | |
| 20260506222200 | 44 | 41 | 1.7 | 1.7 | 0.00 | 0.03 | 0.00 | 99 | |
| 20260506221140 | 44 | 51 | 4.3 | 5.2 | 0.00 | 0.03 | 0.00 | 99 | |
| 20260506220140 | 44 | 64 | 2.6 | 3.5 | 0.00 | 0.03 | 0.00 | 99 | |
| 20260506215120 | 44 | 32 | 4.3 | 6.1 | 0.00 | 0.03 | 0.03 | 99 | |
| 20260506214120 | 44 | 1 | 2.6 | 3.5 | 0.00 | 0.03 | 0.03 | 99 | |
| 20260506213120 | 44 | 26 | 2.6 | 2.6 | 0.00 | 0.03 | 0.03 | 99 | |
| 20260506212100 | 44 | 38 | 2.6 | 4.3 | 0.00 | 0.03 | 0.03 | 99 | |
| 20260506211100 | 44 | 43 | 2.6 | 3.5 | 0.00 | 0.03 | 0.03 | 99 | |
| 20260506210040 | 44 | 345 | 0.9 | 1.7 | 0.00 | 0.03 | 0.03 | 99 | |
| 20260506205040 | 44 | 8 | 2.6 | 3.5 | 0.00 | 0.03 | 0.03 | 99 | |
| 20260506204040 | 45 | 1 | 3.5 | 4.3 | 0.00 | 0.03 | 0.03 | 99 | |
| 20260506203020 | 45 | 0 | 3.5 | 3.5 | 0.00 | 0.03 | 0.03 | 99 | |
| 20260506202020 | 45 | 3 | 3.5 | 3.5 | 0.00 | 0.03 | 0.03 | 99 | |
| 20260506201020 | 45 | 26 | 3.5 | 7.0 | 0.00 | 0.03 | 0.03 | 99 | |
| 20260506200000 | 45 | 25 | 4.3 | 5.2 | 0.00 | 0.03 | 0.03 | 99 | |
| 20260506195000 | 45 | 33 | 3.5 | 5.2 | 0.00 | 0.03 | 0.03 | 99 | |
| 20260506193940 | 45 | 2 | 1.7 | 1.7 | 0.00 | 0.03 | 0.03 | 99 | |
| 20260506192940 | 46 | 9 | 0.9 | 1.7 | 0.00 | 0.03 | 0.03 | 99 | |
| 20260506191920 | 46 | 18 | 2.6 | 5.2 | 0.00 | 0.03 | 0.03 | 99 | |
| 20260506190920 | 46 | 310 | 2.6 | 3.5 | 0.00 | 0.03 | 0.03 | 99 | |
| 20260506185920 | 46 | 339 | 1.7 | 1.7 | 0.00 | 0.03 | 0.03 | 99 | |
| 20260506184900 | 46 | 29 | 1.7 | 2.6 | 0.00 | 0.03 | 0.03 | 99 | |
| 20260506183900 | 46 | 41 | 2.6 | 4.3 | 0.00 | 0.03 | 0.03 | 99 | |
| 20260506182840 | 46 | 345 | 1.7 | 2.6 | 0.00 | 0.03 | 0.03 | 99 | |
| 20260506181840 | 46 | 36 | 3.5 | 3.5 | 0.00 | 0.03 | 0.03 | 99 | |
| 20260506180840 | 46 | 25 | 0.9 | 1.7 | 0.00 | 0.03 | 0.03 | 99 | |
| 20260506175820 | 46 | 19 | 2.6 | 3.5 | 0.00 | 0.03 | 0.03 | 99 | |
| 20260506174820 | 46 | 4 | 3.5 | 5.2 | 0.00 | 0.03 | 0.03 | 99 | |
| 20260506173800 | 46 | 59 | 6.1 | 7.8 | 0.00 | 0.03 | 0.03 | 99 | |
| 20260506172800 | 46 | 27 | 4.3 | 5.2 | 0.00 | 0.03 | 0.03 | 99 | |
| 20260506171800 | 47 | 31 | 3.5 | 4.3 | 0.00 | 0.03 | 0.03 | 99 | |
| 20260506170759 | 47 | 359 | 2.6 | 4.3 | 0.00 | 0.03 | 0.03 | 99 | |
| 20260506165800 | 48 | 27 | 1.7 | 5.2 | 0.00 | 0.03 | 0.03 | 99 | |
| 20260506164759 | 48 | 66 | 1.7 | 4.3 | 0.00 | 0.03 | 0.03 | 99 | |
| 20260506163800 | 49 | 4 | 0.9 | 2.6 | 0.00 | 0.03 | 0.03 | 99 | |
| 20260506162740 | 49 | 25 | 1.7 | 7.8 | 0.00 | 0.03 | 0.03 | 99 | |
| 20260506161740 | 49 | 7 | 3.5 | 6.1 | 0.00 | 0.03 | 0.03 | 99 | |
| 20260506160720 | 50 | 348 | 2.6 | 3.5 | 0.00 | 0.03 | 0.03 | 99 | |
| 20260506155720 | 50 | 56 | 5.2 | 4.3 | 0.00 | 0.03 | 0.03 | 99 | |
| 20260506154700 | 50 | 54 | 0.9 | 4.3 | 0.00 | 0.03 | 0.03 | 99 | |
| 20260506153700 | 50 | 56 | 1.7 | 2.6 | 0.00 | 0.03 | 0.03 | 99 | |
| 20260506152659 | 51 | 39 | 4.3 | 4.3 | 0.00 | 0.03 | 0.03 | 99 | |
| 20260506151640 | 51 | 63 | 1.7 | 4.3 | 0.00 | 0.03 | 0.03 | 99 | |
| 20260506150639 | 51 | 58 | 4.3 | 3.5 | 0.00 | 0.03 | 0.03 | 99 | |
| 20260506145619 | 52 | 44 | 0.9 | 2.6 | 0.00 | 0.03 | 0.03 | 99 | |
| 20260506144619 | 53 | 17 | 3.5 | 5.2 | 0.00 | 0.03 | 0.03 | 99 | |
| 20260506143559 | 54 | 90 | 2.6 | 3.5 | 0.00 | 0.04 | 0.03 | 99 | |
| 20260506142559 | 54 | 31 | 0.9 | 4.3 | 0.00 | 0.04 | 0.03 | 99 | |
| 20260506141559 | 54 | 53 | 1.7 | 2.6 | 0.00 | 0.05 | 0.03 | 99 | |
| 20260506140539 | 54 | 50 | 3.5 | 4.3 | 0.00 | 0.07 | 0.03 | 99 | |
| 20260506135539 | 54 | 63 | 2.6 | 3.5 | 0.00 | 0.08 | 0.03 | 99 | |
| 20260506134520 | 54 | 59 | 1.7 | 2.6 | 0.00 | 0.09 | 0.03 | 99 | |
| 20260506133519 | 54 | 90 | 0.9 | 3.5 | 0.00 | 0.10 | 0.03 | 99 | |
| 20260506132459 | 54 | 35 | 3.5 | 2.6 | 0.00 | 0.11 | 0.03 | 99 | |
| 20260506131459 | 55 | 64 | 2.6 | 3.5 | 0.00 | 0.12 | 0.03 | 99 | |
| 20260506130439 | 55 | 76 | 2.6 | 4.3 | 0.00 | 0.12 | 0.03 | 99 | |
| 20260506125439 | 54 | 7 | 1.7 | 2.6 | 0.00 | 0.12 | 0.03 | 99 | |
| 20260506124439 | 55 | 313 | 0.0 | 0.0 | 0.00 | 0.12 | 0.03 | 99 | |
| 20260506123419 | 54 | 66 | 2.6 | 3.5 | 0.00 | 0.12 | 0.03 | 99 | |
| 20260506122419 | 54 | 71 | 0.0 | 1.7 | 0.00 | 0.12 | 0.03 | 99 | |
| 20260506121359 | 54 | 21 | 0.9 | 1.7 | 0.00 | 0.11 | 0.02 | 99 | |
| 20260506120359 | 55 | 51 | 0.9 | 1.7 | 0.00 | 0.11 | 0.02 | 99 | |
| 20260506115339 | 55 | 73 | 0.9 | 1.7 | 0.00 | 0.11 | 0.02 | 99 | |
| 20260506114339 | 55 | 77 | 0.9 | 2.6 | 0.00 | 0.11 | 0.02 | 99 | |
| 20260506113319 | 56 | 10 | 0.0 | 0.9 | 0.00 | 0.11 | 0.02 | 99 | |
| 20260506112319 | 56 | 128 | 1.7 | 1.7 | 0.00 | 0.11 | 0.02 | 99 | |
| 20260506111259 | 56 | 155 | 0.9 | 1.7 | 0.00 | 0.11 | 0.02 | 99 | |
| 20260506110259 | 57 | 0 | 0.0 | 0.0 | 0.00 | 0.11 | 0.02 | 99 | |
| 20260506105259 | 56 | 152 | 2.6 | 3.5 | 0.00 | 0.12 | 0.02 | 99 | |
| 20260506104239 | 56 | 165 | 0.9 | 2.6 | 0.00 | 0.12 | 0.02 | 99 | |
| 20260506103239 | 55 | 170 | 0.9 | 1.7 | 0.00 | 0.13 | 0.02 | 99 | |
| 20260506102219 | 55 | 57 | 1.7 | 2.6 | 0.00 | 0.13 | 0.02 | 99 | |
| 20260506101219 | 55 | 150 | 2.6 | 3.5 | 0.00 | 0.13 | 0.02 | 99 | |
| 20260506100219 | 55 | 253 | 0.9 | 0.0 | 0.00 | 0.13 | 0.02 | 99 | |
| 20260506095159 | 55 | 127 | 1.7 | 3.5 | 0.00 | 0.13 | 0.02 | 99 | |
| 20260506094139 | 55 | 113 | 0.9 | 0.9 | 0.00 | 0.13 | 0.02 | 99 | |
| 20260506093139 | 55 | 159 | 1.7 | 2.6 | 0.00 | 0.13 | 0.02 | 99 | |
| 20260506092119 | 55 | 129 | 0.9 | 0.9 | 0.00 | 0.13 | 0.02 | 99 | |
| 20260506091119 | 54 | 223 | 0.9 | 1.7 | 0.00 | 0.13 | 0.02 | 99 | |
| 20260506090119 | 55 | 140 | 2.6 | 2.6 | 0.00 | 0.13 | 0.02 | 99 | |
| 20260506085059 | 55 | 180 | 1.7 | 3.5 | 0.00 | 0.13 | 0.02 | 99 | |
| 20260506084059 | 54 | 122 | 0.9 | 0.0 | 0.00 | 0.13 | 0.02 | 99 | |
| 20260506083039 | 53 | 142 | 2.6 | 1.7 | 0.00 | 0.13 | 0.02 | 99 | |
| 20260506082039 | 53 | 123 | 3.5 | 5.2 | 0.00 | 0.13 | 0.02 | 99 | |
| 20260506081039 | 54 | 156 | 0.9 | 1.7 | 0.00 | 0.13 | 0.02 | 99 | |
| 20260506073019 | 52 | 91 | 3.5 | 6.1 | 0.00 | 0.13 | 0.02 | 99 | |
| 20260506072019 | 52 | 71 | 5.2 | 5.2 | 0.00 | 0.13 | 0.02 | 99 | |
| 20260506070959 | 51 | 50 | 3.5 | 6.1 | 0.00 | 0.13 | 0.02 | 99 | |
| 20260506061919 | 50 | 83 | 3.5 | 4.3 | 0.00 | 0.13 | 0.02 | 99 | |
| 20260506060919 | 50 | 65 | 2.6 | 7.8 | 0.00 | 0.13 | 0.02 | 99 | |
| 20260506050838 | 48 | 36 | 4.3 | 7.8 | 0.00 | 0.13 | 0.02 | 99 | |
| 20260506044838 | 48 | 33 | 2.6 | 2.6 | 0.00 | 0.13 | 0.02 | 99 | |
| 20260506043838 | 48 | 65 | 2.6 | 4.3 | 0.00 | 0.13 | 0.02 | 99 | |
| 20260506042818 | 48 | 49 | 4.3 | 5.2 | 0.00 | 0.13 | 0.02 | 99 | |
| 20260506041818 | 48 | 36 | 1.7 | 6.1 | 0.00 | 0.13 | 0.02 | 99 | |
| 20260506040758 | 48 | 32 | 1.7 | 6.1 | 0.00 | 0.13 | 0.02 | 99 | |
| 20260506035738 | 48 | 59 | 0.9 | 1.7 | 0.00 | 0.13 | 0.02 | 99 | |
| 20260506035138 | 48 | 70 | 3.5 | 3.5 | 0.00 | 0.13 | 0.02 | 99 | |
| 20260506034138 | 48 | 73 | 2.6 | 3.5 | 0.00 | 0.13 | 0.02 | 99 | |
| 20260506033118 | 48 | 83 | 5.2 | 7.0 | 0.00 | 0.13 | 0.02 | 99 | |
| 20260506032118 | 48 | 74 | 2.6 | 3.5 | 0.00 | 0.13 | 0.02 | 99 | |
| 20260506031118 | 48 | 54 | 3.5 | 6.1 | 0.00 | 0.13 | 0.02 | 99 | |
| 20260506030118 | 47 | 48 | 3.5 | 6.1 | 0.00 | 0.13 | 0.02 | 99 | |
| 20260506025118 | 47 | 62 | 0.9 | 4.3 | 0.00 | 0.13 | 0.02 | 99 | |
| 20260506024118 | 47 | 90 | 2.6 | 3.5 | 0.00 | 0.13 | 0.02 | 99 | |
| 20260506023118 | 47 | 15 | 1.7 | 3.5 | 0.00 | 0.13 | 0.02 | 99 | |
| 20260506022058 | 47 | 88 | 3.5 | 5.2 | 0.00 | 0.13 | 0.02 | 99 |